Accueil
METAR-TAF:

METAR-TAF

Aéroports :

Maré, Nouvelle-Calédonie

Aérodrome de Maré - La Roche

latitude: 21-28-53S, longitude: 168-02-15E, altitude: 42 m

METAR: absent

Heure: 21:27 (10:27 UTC)

Prévision

Le bulletin a été fait il y a 2 heures et 8 minutes, à 08:19 UTC
Prévision valable du 21 à 08 UTC au 22 à 06 UTC
Vent 3 kt de direction variable
Visibilité 10 km ou plus
Quelques nuages à une hauteur de 3000 ft
Nuages épars à une hauteur de 5000 ft

TAF: NWWR 210819Z 2108/2206 VRB03KT 9999 FEW030 SCT050

Observations et prévisions météorologiques de plus de 4000 aéroports (messages METAR et TAF).

Les stations disponibles sont représentées par des disques jaunes et rouges sur la carte.

Passer la souris dessus pour voir le nom de la station.

Cliquer dessus pour voir les observations et prévisions météorologiques.

Pour changer de carte: cliquez sur les boutons verts avec une croix noire pour zoomer, sur le bouton vert avec un tiret pour effectuer un zoom arrière, ou sur les flèches vertes pour les cartes adjacentes.


METAR-TAF: